DW7980 Weather Reports


Display with metric or nautical units.
time (UTC)temp
F
wind
direction
speed
MPH
gust
MPH
rain 1hr
in
rain 24hr
in
rain mn
in
humidity
%
barometer
mb
20260831050057 60 0 0.0 0.0 0.00 0.00 0.00 74 1015.9
20260831045542 60 0 0.0 0.0 0.00 0.00 0.00 74 1015.9
20260831045042 61 0 0.0 0.0 0.00 0.00 0.00 74 1015.9
20260831044555 61 0 0.0 0.0 0.00 0.00 0.00 73 1015.9
20260831044042 61 0 0.0 0.0 0.00 0.00 0.00 73 1016.0
20260831043542 61 0 0.0 0.0 0.00 0.00 0.00 73 1016.0
20260831043101 61 0 0.0 0.0 0.00 0.00 0.00 72 1016.0
20260831042540 61 0 0.0 0.0 0.00 0.00 0.00 72 1016.0
20260831042038 62 0 0.0 0.0 0.00 0.00 0.00 71 1016.1
20260831041554 62 0 0.0 0.0 0.00 0.00 0.00 71 1016.1
20260831041040 62 0 0.0 0.0 0.00 0.00 0.00 70 1016.1
20260831040543 62 0 0.0 0.0 0.00 0.00 0.00 70 1016.2
20260831040056 62 0 0.0 0.0 0.00 0.00 0.00 70 1016.2
20260831035541 62 0 0.0 0.0 0.00 0.00 0.00 69 1016.3
20260831035041 63 0 0.0 0.0 0.00 0.00 0.00 69 1016.3
20260831034559 63 0 0.0 0.0 0.00 0.00 0.00 68 1016.2
20260831034044 63 0 0.0 0.0 0.00 0.00 0.00 68 1016.2
20260831033541 63 0 0.0 0.0 0.00 0.00 0.00 67 1016.3
20260831033101 63 0 0.0 0.0 0.00 0.00 0.00 67 1016.3
20260831032540 64 0 0.0 0.0 0.00 0.00 0.00 66 1016.3
20260831032046 64 0 0.0 0.0 0.00 0.00 0.00 66 1016.3
20260831031600 64 0 0.0 0.0 0.00 0.00 0.00 66 1016.3
20260831031040 64 0 0.0 0.0 0.00 0.00 0.00 65 1016.3
20260831030540 65 0 0.0 0.0 0.00 0.00 0.00 64 1016.4
20260831030057 65 0 0.0 0.0 0.00 0.00 0.00 64 1016.3
20260831025542 65 0 0.0 0.0 0.00 0.00 0.00 64 1016.3
20260831025043 65 0 0.0 0.0 0.00 0.00 0.00 63 1016.4
20260831024604 65 0 0.0 0.0 0.00 0.00 0.00 63 1016.4
20260831024041 66 0 0.0 0.0 0.00 0.00 0.00 63 1016.4
20260831023545 66 0 0.0 0.0 0.00 0.00 0.00 63 1016.4
20260831023058 66 0 0.0 0.0 0.00 0.00 0.00 62 1016.5
20260831022543 66 0 0.0 0.0 0.00 0.00 0.00 62 1016.4
20260831022042 66 0 0.0 1.0 0.00 0.00 0.00 62 1016.5
20260831021600 66 0 0.0 2.0 0.00 0.00 0.00 61 1016.5
20260831021042 67 0 0.0 2.0 0.00 0.00 0.00 61 1016.6
20260831020541 67 0 0.0 2.0 0.00 0.00 0.00 61 1016.5
20260831020057 67 51 0.0 2.0 0.00 0.00 0.00 61 1016.6
20260831015544 67 51 0.0 2.0 0.00 0.00 0.00 60 1016.6
20260831015041 67 51 0.0 2.0 0.00 0.00 0.00 59 1016.6
20260831014553 67 51 0.0 2.0 0.00 0.00 0.00 59 1016.6
20260831014041 67 51 0.0 2.0 0.00 0.00 0.00 59 1016.7
20260831013538 67 51 0.0 2.0 0.00 0.00 0.00 59 1016.7
20260831013102 68 51 0.0 2.0 0.00 0.00 0.00 58 1016.8
20260831012542 68 0 0.0 2.0 0.00 0.00 0.00 58 1016.8
20260831012042 68 51 0.0 2.0 0.00 0.00 0.00 58 1016.8
20260831011556 68 51 0.0 2.0 0.00 0.00 0.00 57 1016.9
20260831011041 68 51 0.0 2.0 0.00 0.00 0.00 57 1016.9
20260831010542 68 51 0.0 2.0 0.00 0.00 0.00 56 1017.1
20260831010132 68 0 0.0 3.0 0.00 0.00 0.00 56 1017.1
20260831005538 68 50 1.0 3.0 0.00 0.00 0.00 56 1017.1
20260831005038 69 50 1.0 3.0 0.00 0.00 0.00 55 1017.2
20260831004557 69 50 1.0 4.0 0.00 0.00 0.00 54 1017.2
20260831004041 69 51 0.0 5.0 0.00 0.00 0.00 54 1017.2
20260831003542 69 50 2.0 5.0 0.00 0.00 0.00 54 1017.2
20260831003110 69 46 0.0 3.0 0.00 0.00 0.00 54 1017.3
20260831002543 69 46 1.0 4.0 0.00 0.00 0.00 54 1017.3
20260831002045 69 47 0.0 4.0 0.00 0.00 0.00 53 1017.3
20260831001610 70 47 1.0 4.0 0.00 0.00 0.00 52 1017.3
20260831001041 70 98 0.0 4.0 0.00 0.00 0.00 52 1017.3
20260831000539 70 36 1.0 4.0 0.00 0.00 0.00 51 1017.3
20260831000100 70 78 0.0 3.0 0.00 0.00 0.00 52 1017.4
20260830235539 71 105 1.0 7.0 0.00 0.00 0.00 51 1017.3
20260830235041 71 38 1.0 9.0 0.00 0.00 0.00 51 1017.3
20260830234557 71 78 2.0 9.0 0.00 0.00 0.00 50 1017.5
20260830234039 72 38 1.0 9.0 0.00 0.00 0.00 49 1017.4
20260830233541 72 0 0.0 4.0 0.00 0.00 0.00 49 1017.6
20260830233104 73 53 2.0 4.0 0.00 0.00 0.00 49 1017.7
20260830232542 73 99 1.0 4.0 0.00 0.00 0.00 49 1017.7
20260830232040 74 0 1.0 4.0 0.00 0.00 0.00 46 1017.8
20260830231603 75 5 1.0 4.0 0.00 0.00 0.00 47 1017.7
20260830231041 76 0 1.0 4.0 0.00 0.00 0.00 45 1017.8
20260830230539 77 279 1.0 6.0 0.00 0.00 0.00 42 1017.9
20260830230100 78 311 1.0 6.0 0.00 0.00 0.00 41 1018.0
20260830225538 78 71 2.0 6.0 0.00 0.00 0.00 43 1018.0
20260830225038 78 58 3.0 6.0 0.00 0.00 0.00 44 1018.1
20260830224609 78 67 1.0 4.0 0.00 0.00 0.00 43 1018.3
20260830224043 77 32 1.0 3.0 0.00 0.00 0.00 45 1018.3
20260830223540 76 46 1.0 6.0 0.00 0.00 0.00 48 1018.5
20260830223104 75 0 2.0 8.0 0.00 0.00 0.00 46 1018.5
20260830222540 75 63 3.0 8.0 0.00 0.00 0.00 47 1018.6
20260830222039 74 51 1.0 5.0 0.00 0.00 0.00 48 1018.6
20260830221600 74 360 1.0 5.0 0.00 0.00 0.00 46 1018.7
20260830221040 74 316 2.0 5.0 0.00 0.00 0.00 49 1018.8
20260830220541 73 330 2.0 6.0 0.00 0.00 0.00 50 1018.7
20260830220121 73 53 2.0 6.0 0.00 0.00 0.00 48 1018.9
20260830215542 73 265 1.0 7.0 0.00 0.00 0.00 49 1018.9
20260830215040 72 271 2.0 7.0 0.00 0.00 0.00 50 1019.0
20260830214601 72 304 1.0 7.0 0.00 0.00 0.00 47 1019.1
20260830214039 73 292 2.0 5.0 0.00 0.00 0.00 47 1019.2
20260830213539 73 47 2.0 5.0 0.00 0.00 0.00 49 1019.3
20260830213056 74 268 2.0 8.0 0.00 0.00 0.00 47 1019.3
20260830212540 74 65 3.0 8.0 0.00 0.00 0.00 47 1019.3
20260830212040 74 70 2.0 6.0 0.00 0.00 0.00 46 1019.4
20260830211559 75 30 2.0 4.0 0.00 0.00 0.00 47 1019.4
20260830211039 75 41 2.0 4.0 0.00 0.00 0.00 46 1019.5
20260830210539 75 121 1.0 4.0 0.00 0.00 0.00 46 1019.5
20260830210056 75 228 2.0 5.0 0.00 0.00 0.00 47 1019.5
20260830205539 75 57 1.0 6.0 0.00 0.00 0.00 49 1019.5
20260830205038 74 205 3.0 7.0 0.00 0.00 0.00 46 1019.5
20260830204551 75 172 1.0 7.0 0.00 0.00 0.00 45 1019.7
20260830204041 76 63 3.0 6.0 0.00 0.00 0.00 44 1019.7
20260830203539 76 49 1.0 4.0 0.00 0.00 0.00 48 1019.8
20260830203119 74 50 2.0 5.0 0.00 0.00 0.00 51 1019.9
20260830202539 73 42 1.0 6.0 0.00 0.00 0.00 52 1020.0
20260830202038 72 49 3.0 8.0 0.00 0.00 0.00 49 1020.0
20260830201554 71 44 4.0 8.0 0.00 0.00 0.00 51 1020.0
20260830201038 72 306 2.0 6.0 0.00 0.00 0.00 48 1020.0
20260830200539 72 321 1.0 5.0 0.00 0.00 0.00 50 1020.0
20260830200100 72 41 2.0 4.0 0.00 0.00 0.00 50 1020.1
20260830195538 73 260 1.0 4.0 0.00 0.00 0.00 48 1020.2
20260830195042 73 44 1.0 4.0 0.00 0.00 0.00 49 1020.2
20260830194602 73 66 2.0 6.0 0.00 0.00 0.00 48 1020.3
20260830194038 72 49 2.0 6.0 0.00 0.00 0.00 53 1020.3
20260830193539 72 65 3.0 6.0 0.00 0.00 0.00 52 1020.4
20260830193058 72 0 1.0 5.0 0.00 0.00 0.00 50 1020.4
20260830192538 71 74 1.0 3.0 0.00 0.00 0.00 55 1020.4
20260830192041 70 9 1.0 8.0 0.00 0.00 0.00 55 1020.5
20260830191558 70 61 1.0 8.0 0.00 0.00 0.00 58 1020.5
20260830191038 69 62 1.0 5.0 0.00 0.00 0.00 57 1020.6
20260830190538 68 39 3.0 5.0 0.00 0.00 0.00 59 1020.6
20260830190054 67 0 3.0 5.0 0.00 0.00 0.00 60 1020.6
20260830185540 66 36 1.0 3.0 0.00 0.00 0.00 59 1020.8
20260830185038 67 197 0.0 4.0 0.00 0.00 0.00 56 1020.8
20260830184601 67 55 1.0 4.0 0.00 0.00 0.00 58 1020.9
20260830184039 67 42 1.0 3.0 0.00 0.00 0.00 58 1020.8
20260830183542 68 24 2.0 3.0 0.00 0.00 0.00 61 1020.9
20260830183116 67 9 1.0 3.0 0.00 0.00 0.00 60 1021.0
20260830182541 67 88 1.0 4.0 0.00 0.00 0.00 60 1021.0
20260830182040 66 0 0.0 4.0 0.00 0.00 0.00 58 1020.9
20260830181602 67 0 1.0 4.0 0.00 0.00 0.00 60 1020.9
20260830181038 66 57 1.0 5.0 0.00 0.00 0.00 60 1020.9
20260830180543 67 123 1.0 5.0 0.00 0.00 0.00 61 1020.8
20260830180107 66 71 2.0 5.0 0.00 0.00 0.00 64 1020.8
20260830175538 65 71 1.0 3.0 0.00 0.00 0.00 65 1020.8
20260830175040 65 96 0.0 3.0 0.00 0.00 0.00 63 1020.8
20260830174600 65 66 0.0 4.0 0.00 0.00 0.00 64 1020.8
20260830174041 65 66 1.0 4.0 0.00 0.00 0.00 65 1020.8
20260830173538 65 79 1.0 4.0 0.00 0.00 0.00 66 1020.9
20260830173124 65 15 0.0 2.0 0.00 0.00 0.00 66 1020.8
20260830172538 64 337 0.0 3.0 0.00 0.00 0.00 66 1020.8
20260830172038 65 337 1.0 3.0 0.00 0.00 0.00 65 1020.7
20260830171601 65 33 0.0 3.0 0.00 0.00 0.00 67 1020.8
20260830171038 64 46 0.0 3.0 0.00 0.00 0.00 68 1020.8
20260830170538 63 71 1.0 4.0 0.00 0.00 0.00 72 1020.7
20260830170050 62 76 1.0 4.0 0.00 0.00 0.00 73 1020.7
20260830165538 61 133 1.0 3.0 0.00 0.00 0.00 72 1020.7
20260830165038 61 61 0.0 4.0 0.00 0.00 0.00 73 1020.7
20260830164554 61 331 1.0 4.0 0.00 0.00 0.00 76 1020.7
20260830164038 60 86 1.0 5.0 0.00 0.00 0.00 80 1020.7
20260830163538 59 0 1.0 5.0 0.00 0.00 0.00 80 1020.7
20260830163105 58 163 0.0 2.0 0.00 0.00 0.00 81 1020.8
20260830162539 57 34 0.0 3.0 0.00 0.00 0.00 82 1020.9
20260830162039 56 0 1.0 3.0 0.00 0.00 0.00 84 1021.0
20260830161625 56 15 1.0 3.0 0.00 0.00 0.00 84 1020.9
20260830161038 56 82 1.0 3.0 0.00 0.00 0.00 84 1021.0
20260830160538 56 68 0.0 4.0 0.00 0.00 0.00 85 1020.9
20260830160056 56 85 0.0 4.0 0.00 0.00 0.00 85 1020.9
20260830155538 55 84 1.0 4.0 0.00 0.00 0.00 85 1021.0
20260830155039 55 167 1.0 4.0 0.00 0.00 0.00 85 1021.0
20260830154551 55 0 0.0 4.0 0.00 0.00 0.00 86 1020.9
20260830154039 54 0 0.0 4.0 0.00 0.00 0.00 86 1021.0
20260830153538 54 0 0.0 0.0 0.00 0.00 0.00 86 1021.0
20260830153102 54 0 0.0 0.0 0.00 0.00 0.00 86 1021.1
20260830152538 54 0 0.0 0.0 0.00 0.00 0.00 86 1021.1
20260830152039 54 0 0.0 0.0 0.00 0.00 0.00 86 1021.2
20260830151556 54 0 0.0 2.0 0.00 0.00 0.00 86 1021.2
20260830151042 54 0 0.0 2.0 0.00 0.00 0.00 86 1021.2
20260830150538 54 95 0.0 1.0 0.00 0.00 0.00 86 1021.2
20260830150104 53 0 0.0 0.0 0.00 0.00 0.00 86 1021.2
20260830145541 53 0 0.0 1.0 0.00 0.00 0.00 86 1021.1
20260830145041 53 0 0.0 2.0 0.00 0.00 0.00 87 1021.2
20260830144605 53 0 0.0 2.0 0.00 0.00 0.00 88 1021.1
20260830144043 53 95 0.0 2.0 0.00 0.00 0.00 88 1021.2
20260830143541 53 0 0.0 2.0 0.00 0.00 0.00 88 1021.2
20260830143105 53 0 0.0 2.0 0.00 0.00 0.00 88 1021.2
20260830142543 53 95 0.0 2.0 0.00 0.00 0.00 88 1021.1
20260830142042 52 0 0.0 0.0 0.00 0.00 0.00 88 1021.2
20260830141553 52 0 0.0 0.0 0.00 0.00 0.00 88 1021.1
20260830141042 52 0 0.0 0.0 0.00 0.00 0.00 88 1021.1
20260830140541 52 0 0.0 0.0 0.00 0.00 0.00 88 1021.1
20260830140106 52 0 0.0 0.0 0.00 0.00 0.00 88 1021.0
20260830135541 52 0 0.0 0.0 0.00 0.00 0.00 88 1021.1
20260830135039 52 0 0.0 0.0 0.00 0.00 0.00 88 1021.0
20260830134604 51 0 0.0 0.0 0.00 0.00 0.00 88 1021.0
20260830134045 51 0 0.0 0.0 0.00 0.00 0.00 88 1021.1
20260830133541 51 0 0.0 0.0 0.00 0.00 0.00 88 1021.1
20260830133054 51 0 0.0 0.0 0.00 0.00 0.00 87 1021.0
20260830132541 51 0 0.0 0.0 0.00 0.00 0.00 87 1021.0
20260830132041 51 0 0.0 0.0 0.00 0.00 0.00 87 1021.1
20260830131616 51 0 0.0 0.0 0.00 0.00 0.00 87 1021.0
20260830131039 51 0 0.0 0.0 0.00 0.00 0.00 88 1021.0
20260830130541 51 0 0.0 0.0 0.00 0.00 0.00 88 1021.0
20260830130104 51 0 0.0 0.0 0.00 0.00 0.00 88 1021.0
20260830125539 51 0 0.0 0.0 0.00 0.00 0.00 88 1021.0
20260830125042 51 0 0.0 0.0 0.00 0.00 0.00 88 1021.0
20260830124558 51 0 0.0 0.0 0.00 0.00 0.00 88 1020.9
20260830124042 51 0 0.0 0.0 0.00 0.00 0.00 88 1020.9
20260830123539 50 0 0.0 0.0 0.00 0.00 0.00 87 1020.8
20260830123057 50 0 0.0 0.0 0.00 0.00 0.00 87 1020.8
20260830122542 50 0 0.0 0.0 0.00 0.00 0.00 87 1021.0
20260830122041 50 0 0.0 0.0 0.00 0.00 0.00 87 1021.0
20260830121605 50 0 0.0 0.0 0.00 0.00 0.00 87 1020.9
20260830121040 50 0 0.0 0.0 0.00 0.00 0.00 87 1020.9
20260830120540 50 0 0.0 0.0 0.00 0.00 0.00 88 1020.9
20260830115544 50 0 0.0 0.0 0.00 0.00 0.00 88 1020.9
20260830115039 50 0 0.0 0.0 0.00 0.00 0.00 88 1020.9
20260830114600 50 0 0.0 0.0 0.00 0.00 0.00 87 1020.9
20260830114038 50 0 0.0 0.0 0.00 0.00 0.00 87 1020.9
20260830113538 49 0 0.0 0.0 0.00 0.00 0.00 88 1020.9
20260830113053 49 0 0.0 0.0 0.00 0.00 0.00 87 1020.8
20260830112538 49 0 0.0 0.0 0.00 0.00 0.00 87 1020.8
20260830112042 49 0 0.0 0.0 0.00 0.00 0.00 87 1020.9
20260830111559 49 0 0.0 0.0 0.00 0.00 0.00 87 1020.9
20260830111039 49 0 0.0 0.0 0.00 0.00 0.00 86 1020.9
20260830110539 49 0 0.0 0.0 0.00 0.00 0.00 86 1020.9
20260830110135 49 0 0.0 0.0 0.00 0.00 0.00 86 1020.9
20260830105542 49 0 0.0 0.0 0.00 0.00 0.00 86 1020.9
20260830105038 49 0 0.0 0.0 0.00 0.00 0.00 86 1020.9
20260830104557 49 0 0.0 0.0 0.00 0.00 0.00 85 1021.0
20260830104040 49 0 0.0 0.0 0.00 0.00 0.00 85 1021.0
20260830103541 49 0 0.0 0.0 0.00 0.00 0.00 85 1021.0
20260830103056 49 0 0.0 0.0 0.00 0.00 0.00 85 1020.9
20260830102543 49 0 0.0 0.0 0.00 0.00 0.00 85 1020.9
20260830102039 50 0 0.0 0.0 0.00 0.00 0.00 85 1020.9
20260830101554 50 0 0.0 0.0 0.00 0.00 0.00 85 1020.8
20260830101039 50 0 0.0 0.0 0.00 0.00 0.00 85 1020.8
20260830100539 50 0 0.0 0.0 0.00 0.00 0.00 85 1020.8
20260830100050 50 0 0.0 0.0 0.00 0.00 0.00 85 1020.8
20260830095539 50 0 0.0 0.0 0.00 0.00 0.00 84 1020.8
20260830095039 50 0 0.0 0.0 0.00 0.00 0.00 84 1020.9
20260830094612 50 0 0.0 0.0 0.00 0.00 0.00 84 1020.9
20260830094039 50 0 0.0 0.0 0.00 0.00 0.00 84 1020.9
20260830093542 50 0 0.0 0.0 0.00 0.00 0.00 84 1020.9
20260830093139 51 0 0.0 0.0 0.00 0.00 0.00 84 1021.0
20260830092539 51 0 0.0 0.0 0.00 0.00 0.00 84 1020.9
20260830092043 51 0 0.0 0.0 0.00 0.00 0.00 83 1020.9
20260830091558 51 0 0.0 0.0 0.00 0.00 0.00 83 1021.0
20260830091039 51 0 0.0 0.0 0.00 0.00 0.00 83 1020.9
20260830090540 51 0 0.0 0.0 0.00 0.00 0.00 83 1020.9
20260830090105 51 0 0.0 0.0 0.00 0.00 0.00 83 1020.9
20260830085543 51 0 0.0 0.0 0.00 0.00 0.00 83 1020.9
20260830085039 51 0 0.0 0.0 0.00 0.00 0.00 82 1020.9
20260830084555 51 0 0.0 0.0 0.00 0.00 0.00 82 1020.8
20260830084041 51 0 0.0 0.0 0.00 0.00 0.00 82 1020.8
20260830083539 52 0 0.0 0.0 0.00 0.00 0.00 82 1020.9
20260830083101 52 0 0.0 0.0 0.00 0.00 0.00 81 1020.9
20260830082539 52 0 0.0 0.0 0.00 0.00 0.00 81 1020.9
20260830082042 52 0 0.0 0.0 0.00 0.00 0.00 81 1020.9
20260830081558 52 0 0.0 0.0 0.00 0.00 0.00 81 1021.0
20260830081038 52 0 0.0 0.0 0.00 0.00 0.00 81 1020.9
20260830080539 52 0 0.0 1.0 0.00 0.00 0.00 81 1020.9
20260830080058 52 0 0.0 1.0 0.00 0.00 0.00 81 1020.9
20260830075540 53 0 0.0 2.0 0.00 0.00 0.00 80 1020.9
20260830075042 53 0 0.0 2.0 0.00 0.00 0.00 80 1021.0
20260830074647 53 0 0.0 2.0 0.00 0.00 0.00 80 1020.9
20260830074039 53 95 0.0 2.0 0.00 0.00 0.00 80 1020.9
20260830073539 53 0 0.0 2.0 0.00 0.00 0.00 79 1021.0
20260830073103 53 95 0.0 0.0 0.00 0.00 0.00 79 1020.9
20260830072539 53 0 0.0 0.0 0.00 0.00 0.00 79 1021.0
20260830072039 54 0 0.0 0.0 0.00 0.00 0.00 78 1020.9
20260830071606 54 0 0.0 0.0 0.00 0.00 0.00 78 1020.9
20260830071040 54 0 0.0 0.0 0.00 0.00 0.00 78 1020.9
20260830070539 54 0 0.0 0.0 0.00 0.00 0.00 77 1021.0
20260830070058 54 0 0.0 0.0 0.00 0.00 0.00 77 1021.0
20260830065539 54 0 0.0 0.0 0.00 0.00 0.00 77 1021.0
20260830065039 55 0 0.0 0.0 0.00 0.00 0.00 77 1020.9
20260830064555 55 0 0.0 0.0 0.00 0.00 0.00 76 1021.0
20260830064039 55 0 0.0 0.0 0.00 0.00 0.00 76 1020.9
20260830063539 55 0 0.0 0.0 0.00 0.00 0.00 76 1021.0
20260830063059 55 0 0.0 0.0 0.00 0.00 0.00 76 1021.0
20260830062539 55 0 0.0 0.0 0.00 0.00 0.00 76 1020.9
20260830062039 55 0 0.0 0.0 0.00 0.00 0.00 75 1020.9
20260830061554 55 0 0.0 0.0 0.00 0.00 0.00 74 1020.9
20260830061039 56 0 0.0 0.0 0.00 0.00 0.00 74 1020.9
20260830060539 56 0 0.0 0.0 0.00 0.00 0.00 74 1020.8
20260830060054 56 0 0.0 0.0 0.00 0.00 0.00 74 1020.9
20260830055539 56 0 0.0 0.0 0.00 0.00 0.00 73 1020.7
20260830055039 56 0 0.0 0.0 0.00 0.00 0.00 72 1020.8
20260830054558 57 0 0.0 0.0 0.00 0.00 0.00 72 1020.7
20260830054038 57 0 0.0 0.0 0.00 0.00 0.00 71 1020.7
20260830053538 57 0 0.0 0.0 0.00 0.00 0.00 71 1020.6
20260830053059 57 0 0.0 0.0 0.00 0.00 0.00 71 1020.6
20260830052539 57 0 0.0 0.0 0.00 0.00 0.00 70 1020.6
20260830052040 58 0 0.0 0.0 0.00 0.00 0.00 70 1020.6
20260830051555 58 0 0.0 0.0 0.00 0.00 0.00 69 1020.6
20260830051039 58 0 0.0 0.0 0.00 0.00 0.00 69 1020.5
20260830050539 58 0 0.0 0.0 0.00 0.00 0.00 68 1020.5